OCN5KT LGKF-EDDF

Flight info

Callsign OCN5KT
Flight time N/A
Altitude 36000
Route ROTSA UA14 KRK UL53 OLGAT DCT CRAYE DCT GISAM DCT PALEZ DCT SABAD DCT NIPEL DCT SIMBA DCT AKINI T161 DEBHI DEBHI1A
Aircraft A320/M-SDE3FGHIRWY/LB1

Departure

Time 2026-05-06 14:00
Airport Kefallinia Airport (LGKF)

Arrival

Time N/A
Airport Frankfurt Main Airport (EDDF)
Time Latitude Longitude Altitude Speed Heading
2026-05-06 13:35 38.11912 20.50414 61 ft 0 kts 56°
2026-05-06 13:53 38.11905 20.50402 68 ft 3 kts 58°
2026-05-06 13:53 38.11894 20.50378 62 ft 3 kts 63°
2026-05-06 13:53 38.11885 20.50353 64 ft 3 kts 74°
2026-05-06 13:53 38.11882 20.50326 60 ft 3 kts 101°
2026-05-06 13:54 38.11889 20.50308 60 ft 1 kts 146°
2026-05-06 13:54 38.11893 20.50305 60 ft 0 kts 146°
2026-05-06 13:56 38.11892 20.50305 60 ft 2 kts 146°
2026-05-06 13:56 38.11869 20.50325 58 ft 4 kts 146°
2026-05-06 13:56 38.11842 20.50347 61 ft 8 kts 146°
2026-05-06 13:56 38.11787 20.50353 67 ft 10 kts 204°
2026-05-06 13:57 38.11695 20.50311 59 ft 17 kts 161°
2026-05-06 13:57 38.11584 20.50404 58 ft 20 kts 146°
2026-05-06 13:57 38.11459 20.50510 53 ft 23 kts 146°
2026-05-06 13:57 38.11322 20.50623 57 ft 24 kts 147°
2026-05-06 13:58 38.11192 20.50730 55 ft 18 kts 145°
2026-05-06 13:58 38.11127 20.50830 59 ft 11 kts 150°
2026-05-06 13:58 38.11120 20.50785 59 ft 7 kts 326°
2026-05-06 13:58 38.11155 20.50764 57 ft 0 kts 326°
2026-05-06 13:59 38.11319 20.50620 57 ft 70 kts 326°
2026-05-06 13:59 38.11944 20.50095 66 ft 142 kts 326°
2026-05-06 14:00 38.12908 20.49300 318 ft 178 kts 328°
2026-05-06 14:00 38.13975 20.48399 1050 ft 189 kts 324°
2026-05-06 14:00 38.15074 20.47419 1615 ft 200 kts 323°
2026-05-06 14:00 38.16249 20.46327 1921 ft 219 kts 322°
2026-05-06 14:01 38.17535 20.45083 2194 ft 245 kts 322°
2026-05-06 14:01 38.18965 20.43747 2753 ft 260 kts 324°
2026-05-06 14:01 38.20456 20.42404 3542 ft 267 kts 324°
2026-05-06 14:01 38.21993 20.41040 4390 ft 271 kts 324°
2026-05-06 14:02 38.23532 20.39680 5335 ft 269 kts 324°
2026-05-06 14:02 38.25070 20.38308 6183 ft 271 kts 324°
2026-05-06 14:02 38.26622 20.36919 6959 ft 274 kts 324°
2026-05-06 14:02 38.28189 20.35508 7700 ft 277 kts 323°
2026-05-06 14:03 38.29765 20.34085 8514 ft 278 kts 323°
2026-05-06 14:03 38.31350 20.32656 9345 ft 280 kts 323°
2026-05-06 14:03 38.32944 20.31217 10154 ft 282 kts 323°
2026-05-06 14:03 38.34691 20.30040 10731 ft 294 kts 342°
2026-05-06 14:04 38.36809 20.29929 10908 ft 322 kts 11°
2026-05-06 14:04 38.38884 20.31246 11106 ft 349 kts 40°
2026-05-06 14:04 38.40344 20.33718 11590 ft 361 kts 61°
2026-05-06 14:04 38.41311 20.36745 12231 ft 367 kts 71°
2026-05-06 14:05 38.41946 20.39870 12887 ft 371 kts 77°
2026-05-06 14:05 38.42428 20.43113 13537 ft 375 kts 79°
2026-05-06 14:05 38.42786 20.46425 14159 ft 378 kts 83°
2026-05-06 14:05 38.43021 20.49779 14729 ft 381 kts 81°
2026-05-06 14:06 38.43865 20.52965 15261 ft 381 kts 56°
2026-05-06 14:06 38.45662 20.55397 15792 ft 378 kts 31°
2026-05-06 14:06 38.48001 20.56911 16360 ft 378 kts 18°
2026-05-06 14:06 38.50530 20.57788 16923 ft 377 kts
2026-05-06 14:07 38.53136 20.57740 17462 ft 376 kts 348°
2026-05-06 14:07 38.55620 20.56726 18003 ft 376 kts 336°
2026-05-06 14:07 38.57223 20.55864 18361 ft 378 kts 335°
2026-05-06 14:07 38.59650 20.54534 18825 ft 381 kts 335°
2026-05-06 14:08 38.62914 20.52722 19447 ft 384 kts 335°
2026-05-06 14:08 38.65376 20.51351 19936 ft 386 kts 335°
2026-05-06 14:08 38.67010 20.50441 20260 ft 387 kts 335°
2026-05-06 14:08 38.70329 20.48603 20885 ft 390 kts 335°
2026-05-06 14:09 38.71982 20.47691 21187 ft 392 kts 335°
2026-05-06 14:09 38.74498 20.46304 21617 ft 395 kts 335°
2026-05-06 14:09 38.77031 20.44906 22027 ft 397 kts 335°
2026-05-06 14:09 38.79578 20.43504 22452 ft 400 kts 335°
2026-05-06 14:10 38.82143 20.42091 22867 ft 403 kts 335°
2026-05-06 14:10 38.84726 20.40666 23282 ft 405 kts 335°
2026-05-06 14:10 38.87318 20.39231 23682 ft 408 kts 335°
2026-05-06 14:10 38.89930 20.37780 24022 ft 410 kts 334°
2026-05-06 14:11 38.92555 20.36317 24371 ft 412 kts 334°
2026-05-06 14:11 38.95188 20.34847 24703 ft 414 kts 334°
2026-05-06 14:11 38.97837 20.33371 25033 ft 416 kts 334°
2026-05-06 14:11 39.00498 20.31889 25363 ft 418 kts 334°
2026-05-06 14:12 39.03169 20.30398 25680 ft 419 kts 334°
2026-05-06 14:12 39.05852 20.28901 26005 ft 421 kts 334°
2026-05-06 14:12 39.08544 20.27397 26321 ft 423 kts 334°
2026-05-06 14:12 39.11255 20.25884 26650 ft 425 kts 334°
2026-05-06 14:13 39.13942 20.24383 26942 ft 427 kts 334°
2026-05-06 14:13 39.16671 20.22855 27228 ft 429 kts 334°
2026-05-06 14:13 39.19425 20.21316 27553 ft 431 kts 334°
2026-05-06 14:13 39.22182 20.19774 27853 ft 433 kts 334°
2026-05-06 14:14 39.24952 20.18223 28144 ft 435 kts 334°
2026-05-06 14:14 39.27731 20.16664 28432 ft 437 kts 334°
2026-05-06 14:14 39.30522 20.15097 28705 ft 438 kts 334°
2026-05-06 14:14 39.33326 20.13519 28972 ft 440 kts 333°
2026-05-06 14:15 39.36141 20.11930 29240 ft 442 kts 333°
2026-05-06 14:15 39.38962 20.10334 29532 ft 443 kts 333°
2026-05-06 14:15 39.41777 20.08704 29801 ft 443 kts 329°
2026-05-06 14:15 39.44414 20.06663 30053 ft 440 kts 321°
2026-05-06 14:16 39.46763 20.04138 30289 ft 438 kts 312°
2026-05-06 14:16 39.48896 20.01320 30583 ft 437 kts 311°
2026-05-06 14:16 39.51015 19.98517 30904 ft 435 kts 311°
2026-05-06 14:16 39.53140 19.95716 31213 ft 434 kts 311°
2026-05-06 14:17 39.55261 19.92921 31517 ft 433 kts 311°
2026-05-06 14:17 39.57347 19.90176 31818 ft 433 kts 311°
2026-05-06 14:17 39.59481 19.87363 32131 ft 432 kts 311°
2026-05-06 14:17 39.61558 19.84617 32451 ft 431 kts 311°
2026-05-06 14:18 39.63652 19.81842 32781 ft 429 kts 311°
2026-05-06 14:18 39.65732 19.79081 33125 ft 427 kts 311°
2026-05-06 14:18 39.67806 19.76319 33418 ft 426 kts 311°
2026-05-06 14:18 39.69898 19.73529 33737 ft 425 kts 311°
2026-05-06 14:19 39.71934 19.70813 34037 ft 424 kts 311°
2026-05-06 14:19 39.73992 19.68068 34306 ft 424 kts 311°
2026-05-06 14:19 39.76045 19.65326 34556 ft 423 kts 311°
2026-05-06 14:19 39.78099 19.62583 34794 ft 423 kts 311°
2026-05-06 14:20 39.80154 19.59837 35019 ft 423 kts 311°
2026-05-06 14:20 39.82206 19.57095 35234 ft 422 kts 311°
2026-05-06 14:20 39.84253 19.54357 35444 ft 422 kts 311°
2026-05-06 14:20 39.86302 19.51615 35649 ft 422 kts 311°
2026-05-06 14:21 39.88347 19.48877 35846 ft 422 kts 311°
2026-05-06 14:21 39.90390 19.46137 36042 ft 422 kts 311°
2026-05-06 14:21 39.94474 19.40649 36093 ft 422 kts 311°
2026-05-06 14:22 39.98555 19.35159 36089 ft 422 kts 310°
2026-05-06 14:22 40.02628 19.29656 36097 ft 421 kts 310°
2026-05-06 14:23 40.06698 19.24149 36086 ft 421 kts 310°
2026-05-06 14:23 40.10770 19.18645 36087 ft 421 kts 310°
2026-05-06 14:24 40.14844 19.13120 36085 ft 421 kts 310°
2026-05-06 14:24 40.18905 19.07595 36091 ft 421 kts 310°
2026-05-06 14:25 40.22976 19.02074 36085 ft 422 kts 314°
2026-05-06 14:25 40.27855 18.97695 36077 ft 430 kts 329°
2026-05-06 14:26 40.33172 18.94105 36070 ft 430 kts 328°
2026-05-06 14:26 40.38482 18.90492 36070 ft 430 kts 328°
2026-05-06 14:27 40.43790 18.86878 36082 ft 430 kts 328°
2026-05-06 14:27 40.49104 18.83258 36078 ft 430 kts 328°
2026-05-06 14:28 40.54407 18.79629 36078 ft 430 kts 328°
2026-05-06 14:28 40.59681 18.76014 36071 ft 429 kts 328°
2026-05-06 14:29 40.64974 18.72381 36073 ft 429 kts 328°
2026-05-06 14:29 40.70267 18.68743 36073 ft 429 kts 328°
2026-05-06 14:30 40.75558 18.65105 36071 ft 429 kts 328°
2026-05-06 14:30 40.80842 18.61459 36067 ft 429 kts 328°
2026-05-06 14:31 40.86128 18.57801 36062 ft 429 kts 328°
2026-05-06 14:31 40.91406 18.54148 36067 ft 429 kts 327°
2026-05-06 14:32 40.96687 18.50484 36058 ft 429 kts 327°
2026-05-06 14:32 41.01968 18.46810 36060 ft 429 kts 327°
2026-05-06 14:33 41.07255 18.43134 36054 ft 429 kts 327°
2026-05-06 14:33 41.12531 18.39454 36056 ft 429 kts 327°
2026-05-06 14:34 41.17819 18.35751 36043 ft 430 kts 327°
2026-05-06 14:34 41.23106 18.32042 36039 ft 430 kts 327°
2026-05-06 14:35 41.28402 18.28332 36041 ft 431 kts 327°
2026-05-06 14:35 41.33712 18.24616 36041 ft 431 kts 327°
2026-05-06 14:36 41.38988 18.20905 36044 ft 431 kts 327°
2026-05-06 14:36 41.44319 18.17136 36045 ft 431 kts 327°
2026-05-06 14:37 41.49581 18.13407 36040 ft 431 kts 326°
2026-05-06 14:37 41.54588 18.09111 36040 ft 427 kts 321°
2026-05-06 14:38 41.59552 18.04709 36048 ft 428 kts 321°
2026-05-06 14:38 41.64515 18.00305 36034 ft 428 kts 321°
2026-05-06 14:39 41.69477 17.95894 36034 ft 428 kts 321°
2026-05-06 14:39 41.74438 17.91474 36034 ft 428 kts 321°
2026-05-06 14:40 41.79398 17.87044 36027 ft 428 kts 321°
2026-05-06 14:40 41.84356 17.82604 36038 ft 429 kts 322°
2026-05-06 14:41 41.89318 17.78158 36038 ft 429 kts 322°
2026-05-06 14:41 41.94303 17.73763 36033 ft 430 kts 323°
2026-05-06 14:42 41.99459 17.69650 36031 ft 431 kts 325°
2026-05-06 14:42 42.04661 17.65635 36029 ft 431 kts 325°
2026-05-06 14:43 42.09836 17.61549 36039 ft 431 kts 325°
2026-05-06 14:43 42.14990 17.57407 36033 ft 431 kts 324°
2026-05-06 14:44 42.20130 17.53253 36032 ft 431 kts 324°
2026-05-06 14:45 42.27852 17.47021 36031 ft 431 kts 324°
2026-05-06 14:45 42.32996 17.42868 36036 ft 431 kts 325°
2026-05-06 14:46 42.38142 17.38710 36041 ft 431 kts 324°
2026-05-06 14:46 42.43295 17.34540 36028 ft 432 kts 324°
2026-05-06 14:47 42.48448 17.30353 36016 ft 432 kts 324°
2026-05-06 14:47 42.53608 17.26154 36028 ft 433 kts 324°
2026-05-06 14:48 42.58745 17.21970 36022 ft 433 kts 324°
2026-05-06 14:48 42.63914 17.17744 36021 ft 434 kts 324°
2026-05-06 14:49 42.69084 17.13508 36022 ft 434 kts 324°
2026-05-06 14:49 42.74272 17.09259 36026 ft 434 kts 324°